TITAN 3C TRANSTAGE DEB, 26524

Orbit data source: Space-Track

TITAN 3C TRANSTAGE DEB, 26524 is space debris in HEO originally from a launch on Tue, 21 Dec 1965 UTC launched from the Air Force Eastern Test Range (AFETR). Debris objects in space refer to the collection of defunct objects orbiting the Earth. Examples of debris include non-operational satellites, rocket bodies, and fragments generated from explosions, collisions, or faulty payload assembly.

Loading next visibility...
Identifier
26524, 1965-108AK
Orbit
HEO
Country
Flag of USUS
Related business
Manufacturer
Unknown
Mission
Spacecraft
Bus & Motor
Unknown
Mass
Unknown
Launch date (UTC)
1965-12-21 (60 years ago)
Launch vehicle
Unknown
Launch site
Air Force Eastern Test Range (AFETR)
Object type
Payload
Rocket body
Debris
Shape & HBR
Unknown shape, 0.1 m
Radar Cross Section
Medium (>0.1 m² and <1 m²)

Expand to show TLE details & history
Last TLE update: 23 hours ago

TLE from 23 hours ago
0 TITAN 3C TRANSTAGE DEB
1 26524U 65108AK  26132.65236990 -.00000088  00000-0 -87999-3 0  9996
2 26524  26.6306 105.2679 6691104 166.9598   0.8629  2.81767892 42859
Epoch: 2026-05-12T15:39Z
TLE epoch observation values (Epoch: 2026-05-12T15:39:24.759Z)
Latitude
2.91778°
Longitude
174.18403°
Altitude
643.466 km
Speed
9.732 km/s
True Right ascension
18h 37m 50s
True Declination
2° 54' 00"
Sunlit
Object was in full shadow at epoch
Visualization orbit readout
Latitude
Unknown
Longitude
Unknown
Altitude
Unknown
Speed
Unknown
Apparent Right ascension
Unknown
Apparent Declination
Unknown
Sunlit
N/A
Visualization observer readout
Local Sidereal Time
22:57:08
Azimuth
Unknown
Elevation
Unknown
Doppler factor
Unknown
Orbital elements
Apogee altitude
28,969.912 km
Perigee altitude
629.369 km
Semi-major axis
21,177.778 km
Eccentricity
0.66911
Inclination
26.6306°
RAAN
105.2679°
Arg. of periapsis
166.9598°
True anomaly
5.84889°
Mean anomaly
0.8629°
Eccentric anomaly
2.606°
Mean motion
0.70424 °/min
Orbital period
511.19 mins
BSTAR
-0.00087999
Loading maneuver chart data...
Computing Atmospheric mass density...

Documentation

Showing up to 5 results
|